User: anonymous   Login
Location: Bratislava
(48.1517°N, 17.1093°E)
Time: 15:02:14
(UTC+02:00)
Language:

ISS - Orbit

View from above orbital plane
View from above orbital plane
View from above satellite
View from above satellite

Ground track
Ground track

The orbit data is extracted from the following two-line orbital elements,

1 25544U 98067A   24142.35003124  .00025335  00000-0  42455-3 0  9992
2 25544  51.6384  88.3676 0003163 192.6310 305.1222 15.51672766454387
Epoch (UTC): 21 May 2024 08:24:02
Eccentricity: 0.0003163
inclination: 51.6384°
perigee height: 410 km
apogee height: 414 km
right ascension of ascending node: 88.3676°
argument of perigee: 192.6310°
revolutions per day: 15.51672766
mean anomaly at epoch: 305.1222°
orbit number at epoch: 45438

The dashed part of the orbit path shows where the satellite is in the earth's shadow,  

DLR